Time,TemperatureF,DewpointF,PressureIn,WindDirection,WindDirectionDegrees,WindSpeedMPH,WindSpeedGustMPH,Humidity,HourlyPrecipIn,Conditions,Clouds,dailyrainin,SolarRadiationWatts/m^2,SoftwareType,DateUTC
2013-07-29 00:12:00,71.0,43.0,-100.00,SW,223,6.0,7.0,37,0.00,,,-99.99,0.000000,,2013-07-29 07:12:00,
2013-07-29 00:22:00,71.0,43.0,-100.00,SW,223,6.0,7.0,37,0.00,,,-99.99,0.000000,,2013-07-29 07:22:00,
2013-07-29 00:33:00,71.0,43.0,-100.00,SW,223,6.0,7.0,37,0.00,,,-99.99,0.000000,,2013-07-29 07:33:00,
2013-07-29 00:43:00,71.0,43.0,-100.00,SW,223,6.0,7.0,37,0.00,,,-99.99,0.000000,,2013-07-29 07:43:00,
2013-07-29 01:22:00,74.0,45.0,-100.00,WSW,246,2.0,9.0,35,0.00,,,0.00,0.000000,,2013-07-29 08:22:00,
2013-07-29 01:33:00,74.0,45.0,-100.00,WSW,246,2.0,9.0,35,0.00,,,0.00,0.000000,,2013-07-29 08:33:00,
2013-07-29 01:42:00,74.0,45.0,-100.00,WSW,246,2.0,9.0,35,0.00,,,0.00,0.000000,,2013-07-29 08:42:00,
2013-07-29 02:12:00,72.0,47.0,-100.00,SE,135,4.0,10.0,41,0.00,,,0.00,0.000000,,2013-07-29 09:12:00,
2013-07-29 02:22:00,72.0,47.0,-100.00,SE,135,4.0,10.0,41,0.00,,,0.00,0.000000,,2013-07-29 09:22:00,
2013-07-29 02:33:00,72.0,47.0,-100.00,SE,135,4.0,10.0,41,0.00,,,0.00,0.000000,,2013-07-29 09:33:00,
2013-07-29 02:43:00,72.0,47.0,-100.00,SE,135,4.0,10.0,41,0.00,,,0.00,0.000000,,2013-07-29 09:43:00,
2013-07-29 03:13:00,73.0,48.0,-100.00,South,176,12.0,18.0,41,0.00,,,0.00,0.000000,,2013-07-29 10:13:00,
2013-07-29 03:23:00,73.0,48.0,-100.00,South,176,12.0,18.0,41,0.00,,,0.00,0.000000,,2013-07-29 10:23:00,
2013-07-29 03:34:00,73.0,48.0,-100.00,South,176,12.0,18.0,41,0.00,,,0.00,0.000000,,2013-07-29 10:34:00,
2013-07-29 03:44:00,73.0,48.0,-100.00,South,176,12.0,18.0,41,0.00,,,0.00,0.000000,,2013-07-29 10:44:00,
2013-07-29 04:14:00,70.0,47.0,-100.00,South,180,12.0,17.0,44,0.00,,,0.00,0.000000,,2013-07-29 11:14:00,
2013-07-29 04:22:00,70.0,47.0,-100.00,South,180,12.0,17.0,44,0.00,,,0.00,0.000000,,2013-07-29 11:22:00,
2013-07-29 04:34:00,70.0,47.0,-100.00,South,180,12.0,17.0,44,0.00,,,0.00,0.000000,,2013-07-29 11:34:00,
2013-07-29 04:44:00,70.0,47.0,-100.00,South,180,12.0,17.0,44,0.00,,,0.00,0.000000,,2013-07-29 11:44:00,
2013-07-29 05:13:00,69.0,48.0,-100.00,WSW,237,6.0,17.0,48,0.00,,,0.00,0.000000,,2013-07-29 12:13:00,
2013-07-29 05:24:00,69.0,48.0,-100.00,WSW,237,6.0,17.0,48,0.00,,,0.00,0.000000,,2013-07-29 12:24:00,
2013-07-29 05:44:00,69.0,48.0,-100.00,WSW,237,6.0,17.0,48,0.00,,,0.00,0.000000,,2013-07-29 12:44:00,
2013-07-29 06:15:00,61.0,46.0,-100.00,SW,217,0.0,6.0,57,0.00,,,0.00,0.000000,,2013-07-29 13:15:00,
2013-07-29 06:24:00,61.0,46.0,-100.00,SW,217,0.0,6.0,57,0.00,,,0.00,0.000000,,2013-07-29 13:24:00,
2013-07-29 06:34:00,61.0,46.0,-100.00,SW,217,0.0,6.0,57,0.00,,,0.00,0.000000,,2013-07-29 13:34:00,
2013-07-29 06:43:00,61.0,46.0,-100.00,SW,217,0.0,6.0,57,0.00,,,0.00,0.000000,,2013-07-29 13:43:00,
2013-07-29 07:12:00,64.0,46.0,-100.00,West,272,1.0,4.0,52,0.00,,,0.00,42.000000,,2013-07-29 14:12:00,
2013-07-29 07:33:00,64.0,46.0,-100.00,West,272,1.0,4.0,52,0.00,,,0.00,42.000000,,2013-07-29 14:33:00,
2013-07-29 07:42:00,64.0,46.0,-100.00,West,272,1.0,4.0,52,0.00,,,0.00,42.000000,,2013-07-29 14:42:00,
2013-07-29 08:36:00,72.0,48.0,-100.00,WSW,252,1.0,6.0,43,0.00,,,0.00,236.000000,,2013-07-29 15:36:00,
2013-07-29 08:44:00,72.0,48.0,-100.00,WSW,252,1.0,6.0,43,0.00,,,0.00,236.000000,,2013-07-29 15:44:00,
2013-07-29 11:43:00,87.0,42.0,-100.00,SSW,210,9.0,15.0,21,-99.99,,,0.00,916.000000,,2013-07-29 18:43:00,
2013-07-29 12:15:00,88.0,42.0,-100.00,SSW,204,9.0,16.0,20,0.00,,,0.00,1092.000000,,2013-07-29 19:15:00,
2013-07-29 12:24:00,88.0,42.0,-100.00,SSW,204,9.0,16.0,20,0.00,,,0.00,1092.000000,,2013-07-29 19:24:00,
2013-07-29 12:36:00,88.0,42.0,-100.00,SSW,204,9.0,16.0,20,0.00,,,0.00,1092.000000,,2013-07-29 19:36:00,
2013-07-29 12:44:00,88.0,42.0,-100.00,SSW,204,9.0,16.0,20,0.00,,,0.00,1092.000000,,2013-07-29 19:44:00,
2013-07-29 13:14:00,89.0,38.0,-100.00,SW,224,7.0,19.0,17,0.00,,,0.00,1186.000000,,2013-07-29 20:14:00,
2013-07-29 13:23:00,89.0,38.0,-100.00,SW,224,7.0,19.0,17,0.00,,,0.00,1186.000000,,2013-07-29 20:23:00,
2013-07-29 13:33:00,89.0,38.0,-100.00,SW,224,7.0,19.0,17,0.00,,,0.00,1186.000000,,2013-07-29 20:33:00,
2013-07-29 13:44:00,89.0,38.0,-100.00,SW,224,7.0,19.0,17,0.00,,,0.00,1186.000000,,2013-07-29 20:44:00,
2013-07-29 14:15:00,92.0,41.0,-100.00,SW,216,12.0,23.0,17,0.00,,,0.00,1197.000000,,2013-07-29 21:15:00,
2013-07-29 14:23:00,92.0,41.0,-100.00,SW,216,12.0,23.0,17,0.00,,,0.00,1197.000000,,2013-07-29 21:23:00,
2013-07-29 14:33:00,92.0,41.0,-100.00,SW,216,12.0,23.0,17,0.00,,,0.00,1197.000000,,2013-07-29 21:33:00,
2013-07-29 15:23:00,93.0,42.0,-100.00,SSW,207,12.0,27.0,17,0.00,,,0.00,1152.000000,,2013-07-29 22:23:00,
2013-07-29 15:34:00,93.0,42.0,-100.00,SSW,207,12.0,27.0,17,0.00,,,0.00,1152.000000,,2013-07-29 22:34:00,
2013-07-29 15:43:00,93.0,42.0,-100.00,SSW,207,12.0,27.0,17,0.00,,,0.00,1152.000000,,2013-07-29 22:43:00,
2013-07-29 16:24:00,94.0,41.0,-100.00,SW,215,12.0,25.0,16,0.00,,,0.00,1046.000000,,2013-07-29 23:24:00,
2013-07-29 16:34:00,94.0,41.0,-100.00,SW,215,12.0,25.0,16,0.00,,,0.00,1046.000000,,2013-07-29 23:34:00,
2013-07-29 17:15:00,93.0,40.0,-100.00,WNW,295,5.0,23.0,16,0.00,,,0.00,725.000000,,2013-07-30 00:15:00,
2013-07-29 17:23:00,93.0,40.0,-100.00,WNW,295,5.0,23.0,16,0.00,,,0.00,725.000000,,2013-07-30 00:23:00,
2013-07-29 17:33:00,93.0,40.0,-100.00,WNW,295,5.0,23.0,16,0.00,,,0.00,725.000000,,2013-07-30 00:33:00,
2013-07-29 17:44:00,93.0,40.0,-100.00,WNW,295,5.0,23.0,16,0.00,,,0.00,725.000000,,2013-07-30 00:44:00,
2013-07-29 18:23:00,90.0,43.0,-100.00,WNW,292,20.0,31.0,20,0.00,,,0.00,557.000000,,2013-07-30 01:23:00,
2013-07-29 18:34:00,90.0,43.0,-100.00,WNW,292,20.0,31.0,20,0.00,,,0.00,557.000000,,2013-07-30 01:34:00,
2013-07-29 18:43:00,90.0,43.0,-100.00,WNW,292,20.0,31.0,20,0.00,,,0.00,557.000000,,2013-07-30 01:43:00,
2013-07-29 19:13:00,87.0,44.0,-100.00,WNW,297,23.0,31.0,22,0.00,,,0.00,480.000000,,2013-07-30 02:13:00,
2013-07-29 19:23:00,87.0,44.0,-100.00,WNW,297,23.0,31.0,22,0.00,,,0.00,480.000000,,2013-07-30 02:23:00,
2013-07-29 19:34:00,87.0,44.0,-100.00,WNW,297,23.0,31.0,22,0.00,,,0.00,480.000000,,2013-07-30 02:34:00,
2013-07-29 19:44:00,87.0,44.0,-100.00,WNW,297,23.0,31.0,22,0.00,,,0.00,480.000000,,2013-07-30 02:44:00,
2013-07-29 20:15:00,81.0,41.0,-100.00,WNW,289,18.0,30.0,24,0.00,,,0.00,133.000000,,2013-07-30 03:15:00,
2013-07-29 20:24:00,81.0,41.0,-100.00,WNW,289,18.0,30.0,24,0.00,,,0.00,133.000000,,2013-07-30 03:24:00,
2013-07-29 20:33:00,81.0,41.0,-100.00,WNW,289,18.0,30.0,24,0.00,,,0.00,133.000000,,2013-07-30 03:33:00,
2013-07-29 20:43:00,81.0,41.0,-100.00,WNW,289,18.0,30.0,24,0.00,,,0.00,133.000000,,2013-07-30 03:43:00,
2013-07-29 21:12:00,77.0,41.0,-100.00,WNW,290,15.0,24.0,28,0.00,,,0.00,8.000000,,2013-07-30 04:12:00,
2013-07-29 21:22:00,77.0,41.0,-100.00,WNW,290,15.0,24.0,28,0.00,,,0.00,8.000000,,2013-07-30 04:22:00,
2013-07-29 21:33:00,77.0,41.0,-100.00,WNW,290,15.0,24.0,28,0.00,,,0.00,8.000000,,2013-07-30 04:33:00,
2013-07-29 21:43:00,77.0,41.0,-100.00,WNW,290,15.0,24.0,28,0.00,,,0.00,8.000000,,2013-07-30 04:43:00,
2013-07-29 22:12:00,75.0,41.0,-100.00,WNW,295,12.0,22.0,29,0.00,,,0.00,0.000000,,2013-07-30 05:12:00,
2013-07-29 22:22:00,75.0,41.0,-100.00,WNW,295,12.0,22.0,29,0.00,,,0.00,0.000000,,2013-07-30 05:22:00,
2013-07-29 22:32:00,75.0,41.0,-100.00,WNW,295,12.0,22.0,29,0.00,,,0.00,0.000000,,2013-07-30 05:32:00,
2013-07-29 22:45:00,75.0,41.0,-100.00,WNW,295,12.0,22.0,29,0.00,,,0.00,0.000000,,2013-07-30 05:45:00,
2013-07-29 23:12:00,72.0,39.0,-100.00,WNW,301,5.0,19.0,30,0.00,,,0.00,0.000000,,2013-07-30 06:12:00,
2013-07-29 23:22:00,72.0,39.0,-100.00,WNW,301,5.0,19.0,30,0.00,,,0.00,0.000000,,2013-07-30 06:22:00,
2013-07-29 23:32:00,72.0,39.0,-100.00,WNW,301,5.0,19.0,30,0.00,,,0.00,0.000000,,2013-07-30 06:32:00,
2013-07-29 23:43:00,72.0,39.0,-100.00,WNW,301,5.0,19.0,30,0.00,,,0.00,0.000000,,2013-07-30 06:43:00,